Location: Burbank
(38.7788°N, 114.0429°W)
Time: 01:35:47
(UTC+00:00)

Vanguard 1 - Visible Passes

Search period start: 14 May 2026 00:00
Search period end: 24 May 2026 00:00
Orbit: 654 x 3817 km, 34.2° (Epoch: 13 May)

Date Brightness Start Highest point End Pass type
(mag) Time Alt. Az. Time Alt. Az. Time Alt. Az.
14 May 12.5 04:14:08 10° W 04:28:23 63° SSW 04:44:02 24° SE visible
14 May 13.1 06:36:57 10° W 06:53:12 37° SW 06:56:32 36° SSW visible
15 May 12.6 04:33:34 10° W 04:47:58 57° SSW 05:01:29 28° SE visible
15 May 13.3 06:57:16 10° W 07:12:31 30° SW 07:13:58 30° SSW visible
16 May 12.8 04:53:06 10° W 05:07:30 50° SSW 05:18:58 30° SSE visible
16 May 13.5 07:18:11 10° W 07:31:28 23° SW 07:31:28 23° SW visible
17 May 12.3 02:51:30 10° W 03:02:49 66° SSW 03:22:58 10° ESE visible
17 May 12.9 05:12:46 10° W 05:27:01 42° SSW 05:36:32 30° SSE visible
17 May 13.7 07:40:15 10° WSW 07:49:03 17° SW 07:49:03 17° SW visible
18 May 12.3 03:10:49 10° W 03:22:22 61° SSW 03:41:38 12° SE visible
18 May 13.1 05:32:39 10° W 05:46:30 35° SSW 05:54:10 28° S visible
18 May 13.9 08:06:05 10° WSW 08:06:41 10° WSW 08:06:41 10° WSW visible
19 May 12.5 03:30:11 10° W 03:41:54 54° SSW 03:59:20 15° SE visible
19 May 13.3 05:52:52 10° W 06:05:57 28° SW 06:11:51 25° SSW visible
20 May 12.6 03:49:39 10° W 04:01:26 47° SSW 04:17:05 17° SE visible
20 May 13.5 06:13:43 10° W 06:25:23 22° SW 06:29:36 20° SSW visible
21 May 12.8 04:09:15 10° W 04:20:57 39° SSW 04:34:53 18° SSE visible
21 May 13.7 06:35:48 10° WSW 06:44:51 16° SW 06:47:25 15° SSW visible
22 May 13.0 04:29:06 10° W 04:40:28 32° SSW 04:52:44 17° SSE visible
23 May 13.2 04:49:19 10° W 05:00:00 25° SSW 05:10:40 16° S visible
